Zurück zum Katalog

ARIANE 5 R/B

AktivGTO
NORAD 27462·ROCKET BODY·🇫🇷 France

Gestartet Jul 5, 2002 von Guiana Space Centre

Loading…

TLE

AlterndSource: Space-Track

Epoche: Sep 14, 2026, 13:55 UTC

1 27462U 02035C   26257.58016839 -.00000048  00000-0  17611-2 0  9994
2 27462   5.3798  65.9440 7166539 139.8752 107.3733  2.22720848196932

Verfolge ARIANE 5 R/B in Echtzeit mit AllMySat

Download on the App Store